TimePDT,TemperatureF,Dew PointF,Humidity,Sea Level PressureIn,VisibilityMPH,Wind Direction,Wind SpeedMPH,Gust SpeedMPH,PrecipitationIn,Events,Conditions,WindDirDegrees,DateUTC
12:54 AM,60.1,60.1,100,29.94,5.0,NNW,5.8,-,N/A,,Clear,330,2012-10-15 07:54:00
1:54 AM,60.1,60.1,100,29.94,6.0,Calm,Calm,-,N/A,,Clear,0,2012-10-15 08:54:00
2:54 AM,60.1,57.0,90,29.92,8.0,NNW,5.8,-,N/A,,Clear,340,2012-10-15 09:54:00
3:54 AM,57.0,57.0,100,29.91,7.0,Calm,Calm,-,N/A,,Clear,0,2012-10-15 10:54:00
4:54 AM,59.0,57.9,96,29.91,7.0,North,3.5,-,N/A,,Clear,360,2012-10-15 11:54:00
5:54 AM,57.9,57.9,100,29.91,6.0,North,4.6,-,N/A,,Clear,10,2012-10-15 12:54:00
6:54 AM,59.0,53.1,81,29.92,7.0,North,5.8,-,N/A,,Partly Cloudy,350,2012-10-15 13:54:00
7:54 AM,57.9,55.0,90,29.92,7.0,North,8.1,-,N/A,,Partly Cloudy,360,2012-10-15 14:54:00
8:54 AM,66.9,55.9,68,29.94,7.0,Calm,Calm,-,N/A,,Scattered Clouds,0,2012-10-15 15:54:00
9:54 AM,72.0,61.0,68,29.94,7.0,Calm,Calm,-,N/A,,Scattered Clouds,0,2012-10-15 16:54:00
10:54 AM,78.1,68.0,71,29.93,7.0,WNW,5.8,-,N/A,,Scattered Clouds,290,2012-10-15 17:54:00
11:54 AM,75.9,68.0,76,29.92,7.0,WSW,11.5,-,N/A,,Partly Cloudy,240,2012-10-15 18:54:00
12:54 PM,73.0,64.9,76,29.91,7.0,West,6.9,-,N/A,,Partly Cloudy,260,2012-10-15 19:54:00
1:54 PM,73.0,66.0,79,29.89,7.0,WSW,10.4,-,N/A,,Partly Cloudy,250,2012-10-15 20:54:00
2:54 PM,72.0,64.9,78,29.88,7.0,WSW,10.4,-,N/A,,Partly Cloudy,250,2012-10-15 21:54:00
3:54 PM,72.0,66.0,81,29.87,7.0,WSW,8.1,-,N/A,,Partly Cloudy,240,2012-10-15 22:54:00
4:54 PM,70.0,64.9,84,29.86,6.0,West,6.9,-,N/A,,Haze,270,2012-10-15 23:54:00
5:54 PM,68.0,64.0,87,29.86,7.0,Calm,Calm,-,N/A,,Partly Cloudy,0,2012-10-16 00:54:00
6:54 PM,64.9,64.9,100,29.86,7.0,NW,5.8,-,N/A,,Partly Cloudy,320,2012-10-16 01:54:00
7:54 PM,64.0,64.0,100,29.86,7.0,NNW,3.5,-,N/A,,Partly Cloudy,330,2012-10-16 02:54:00
8:54 PM,64.0,64.0,100,29.87,7.0,NNW,6.9,-,N/A,,Partly Cloudy,340,2012-10-16 03:54:00
9:54 PM,64.0,64.0,100,29.88,7.0,NW,4.6,-,N/A,,Clear,320,2012-10-16 04:54:00
10:54 PM,63.0,63.0,100,29.86,7.0,NNW,5.8,-,N/A,,Clear,340,2012-10-16 05:54:00
11:54 PM,64.0,59.0,84,29.86,7.0,Calm,Calm,-,N/A,,Clear,0,2012-10-16 06:54:00